DELTA 1 DEB, 39097

Orbit data source: Space-Track

DELTA 1 DEB, 39097 is space debris in SSO originally from a launch on Tue, 06 Nov 1973 UTC launched from the Air Force Western Test Range (AFWTR). Debris objects in space refer to the collection of defunct objects orbiting the Earth. Examples of debris include non-operational satellites, rocket bodies, and fragments generated from explosions, collisions, or faulty payload assembly.

Loading next visibility...
Identifier
39097, 1973-086HK
Orbit
SSO
Country
Flag of USUS
Related business
Manufacturer
Unknown
Mission
Spacecraft
Bus & Motor
Unknown
Mass
Unknown
Launch date (UTC)
1973-11-06 (52 years ago)
Launch vehicle
Unknown
Launch site
Air Force Western Test Range (AFWTR)
Object type
Payload
Rocket body
Debris
Shape & HBR
Unknown shape, 0.1 m
Radar Cross Section
Small (<0.1 m²)

Expand to show TLE details & history
Last TLE update: 17 hours ago

TLE from 17 hours ago
0 DELTA 1 DEB
1 39097U 73086HK  25353.56842853 -.00000024  00000-0  17916-3 0  9995
2 39097 102.4044  14.7079 0031228 224.7948 288.8247 12.33950216582854
Epoch: 2025-12-19T13:38Z
TLE epoch observation values (Epoch: 2025-12-19T13:38:32.224Z)
Latitude
26.08185°
Longitude
-92.1837°
Altitude
1,527.278 km
Speed
7.108 km/s
True Right ascension
13h 23m 25s
True Declination
25° 57' 34"
Sunlit
Object was in daylight at epoch
Visualization orbit readout
Latitude
Unknown
Longitude
Unknown
Altitude
Unknown
Speed
Unknown
Apparent Right ascension
Unknown
Apparent Declination
Unknown
Sunlit
N/A
Visualization observer readout
Local Sidereal Time
05:45:39
Azimuth
Unknown
Elevation
Unknown
Doppler factor
Unknown
Orbital elements
Apogee altitude
1,554.656 km
Perigee altitude
1,505.265 km
Semi-major axis
7,908.098 km
Eccentricity
0.00312
Inclination
102.4044°
RAAN
14.7079°
Arg. of periapsis
224.7948°
True anomaly
288.48557°
Mean anomaly
288.8247°
Eccentric anomaly
288.65518°
Mean motion
3.08628 °/min
Orbital period
116.65 mins
BSTAR
0.00017916
Loading maneuver chart data...
Computing Atmospheric mass density...
Loading historical data...
Loading historical data...
Loading historical data...
Loading historical data...
Loading historical data...
Loading historical data...
Loading historical data...

Documentation

Showing up to 5 results
|